Lid_Strength_Index
7 11 13 10 9 9 9 11 11 10 8 9 9 9 7 6 6 6 6 5 4 5 5 5 3 2 2 1 1 1 1 0 0 1 1 1 1 0 -0 -0 -0 0 -0 -1
10 13 8 7 8 10 10 11 12 10 9 9 9 10 8 6 6 6 6 6 5 6 6 5 5 4 2 2 1 1 1 1 0 0 0 0 0 0 -0 -0 -0 -0 0 0
12 10 7 9 10 11 11 11 11 12 9 8 10 11 9 7 6 6 6 5 4 6 6 6 5 5 3 2 2 1 1 1 0 0 0 0 0 0 1 0 0 -0 -0 -0
11 8 9 10 11 10 13 9 10 12 12 15 10 15 10 9 8 7 6 5 5 5 6 6 5 5 4 2 1 1 1 1 0 0 1 1 2 2 1 1 0 -0 0 0
12 11 11 11 11 9 11 9 10 11 13 14 13 16 12 10 10 9 7 6 5 4 4 5 5 5 4 3 2 1 1 1 1 0 1 1 2 1 1 1 1 0 0 0
10 7 9 10 9 9 8 10 11 11 13 18 13 14 13 11 10 9 7 6 5 5 4 4 3 4 5 4 4 1 1 1 1 1 1 1 2 2 2 1 1 1 0 0
12 11 8 8 11 9 10 13 18 19 19 18 12 14 12 9 9 8 7 6 5 5 5 4 4 4 4 4 4 4 3 2 1 1 1 1 1 1 1 1 1 1 2 2
16 17 11 8 9 12 12 12 16 20 19 16 13 16 12 9 8 7 7 7 6 6 5 5 4 4 4 3 4 4 3 3 2 1 1 1 1 1 1 1 1 1 1 1
16 15 9 8 8 8 12 15 10 14 16 17 13 11 9 8 8 8 7 7 7 6 6 6 6 6 6 5 4 3 3 3 2 1 1 1 1 1 1 1 0 1 0 0
11 16 11 10 8 9 10 8 15 14 20 20 14 14 12 9 8 6 7 7 6 7 7 7 7 7 7 7 6 5 4 3 2 1 1 1 1 1 1 1 1 1 0 0
9 11 14 11 12 13 13 13 13 13 15 17 18 13 8 8 7 8 7 7 6 6 6 7 7 7 7 7 7 7 6 5 3 2 1 1 1 1 1 1 1 1 0 0
9 11 16 14 10 8 9 11 12 15 17 16 16 15 8 7 7 8 7 6 5 6 6 6 6 6 7 7 8 8 7 5 4 2 1 1 1 1 1 1 1 0 1 0
9 13 17 16 13 10 12 11 10 11 13 16 18 14 9 8 7 6 6 6 6 5 5 5 4 5 6 6 7 7 7 6 3 2 1 1 1 1 1 1 1 1 1 1
7 12 13 16 14 12 14 12 11 12 16 14 14 12 9 8 8 7 7 6 6 5 5 4 4 5 5 6 6 6 6 6 6 3 2 2 2 1 1 1 1 1 1 1
9 14 12 12 11 11 11 12 12 13 12 14 12 11 9 8 8 8 7 6 6 5 5 5 5 5 5 5 6 6 6 6 6 7 5 3 4 4 4 3 3 3 3 2
9 14 12 14 11 12 13 11 11 11 11 11 11 12 7 6 7 8 7 6 6 5 5 5 5 5 5 5 6 6 6 6 6 6 6 7 7 8 7 6 7 7 7 7
11 12 14 16 12 13 16 13 12 11 10 10 13 10 7 8 7 7 6 6 6 6 6 6 5 5 4 4 5 6 6 6 7 7 8 9 8 8 8 9 10 10 9 9
11 12 13 16 14 19 12 10 8 10 9 8 9 8 7 6 6 5 5 6 8 8 8 7 6 5 4 4 5 6 6 7 7 8 9 10 10 10 10 10 10 10 11 11
8 11 16 16 16 13 12 12 10 11 10 8 8 8 8 9 8 8 7 9 10 9 8 8 7 6 5 4 6 7 8 8 8 9 9 11 10 11 10 11 10 11 11 12
10 11 12 18 17 19 13 10 9 8 14 12 11 12 12 12 12 9 10 11 11 10 9 8 8 7 6 6 6 8 8 9 10 10 11 11 11 12 11 11 12 13 12 14
13 14 15 16 15 14 11 10 8 14 14 13 13 14 14 14 12 12 12 12 11 11 10 9 9 9 10 9 9 9 10 11 10 11 12 13 12 12 11 12 13 13 13 13
14 15 15 17 17 17 12 10 11 15 14 15 15 16 17 16 15 15 14 14 13 12 11 11 12 12 13 12 12 12 12 12 13 13 13 13 13 13 13 13 13 13 13 14
14 12 13 12 12 12 14 16 17 17 17 17 18 17 18 18 17 16 16 15 14 12 12 13 14 14 15 15 14 14 14 14 14 13 13 14 14 14 14 14 14 13 13 13
13 14 12 11 13 14 15 17 18 18 18 18 18 18 18 18 18 17 16 16 16 14 14 15 15 15 17 18 17 17 16 15 14 14 14 14 14 14 14 13 13 13 13 13
16 16 16 13 19 16 17 18 20 19 19 19 19 19 19 18 18 17 17 17 17 16 16 16 17 17 19 19 20 20 19 16 14 15 16 15 15 15 15 15 14 14 14 13
22 22 15 14 24 24 20 19 21 21 22 21 21 21 19 19 19 18 19 18 18 19 19 19 20 20 20 21 21 22 20 17 16 17 17 16 16 16 15 15 15 14 14 14